Location: Newark
(53.5596°N, 1.2370°W)
Time: 23:38:39
(UTC+00:00)

ISS - Pass Details

Date: 30 October 2019
Orbit: 412 x 421 km, 51.6° (Epoch: 22 November)

Event Time Altitude Azimuth Distance (km) Brightness Sun altitude
Exits shadow 04:43:27 26° 172° (S) 880 -2.2 -20.6°
Maximum altitude 04:44:02 27° 153° (SSE) 842 -2.1 -20.5°
Drops below altitude 10° 04:46:59 10° 93° (E) 1,510 0.3 -20.1°
Sets 04:49:15 0° 81° (E) 2,376 1.7 -19.8°
